Regional Weather Roundup
Issued by NWS

Home | Current Version | Previous Version | Text Only | Print | Product List | Glossary Off
Versions: 1 2 3 4 5 6 7 8 9 10 11 12 13 14 15 16 17 18 19 20 21 22 23 24 25 26 27 28 29 30 31 32 33 34 35 36 37 38 39 40 41 42 43 44 45 46 47 48 49 50

000
ASUS43 KMPX 230110
RWRMN
WEATHER ROUNDUP FOR MINNESOTA
NATIONAL WEATHER SERVICE TWIN CITIES/CHANHASSEN MN
700 PM CST SAT NOV 22 2014


NOTE: "FAIR" INDICATES FEW OR NO CLOUDS BELOW 12,000 FEET WITH NO
SIGNIFICANT WEATHER AND/OR OBSTRUCTIONS TO VISIBILITY. N/A MEANS
CURRENT SKY AND/OR WEATHER CONDITIONS ARE NOT AVAILABLE.

MNZ060>063-068>070-230200-
   Twin Cities Metro

CITY           SKY/WX    TMP DP  RH WIND       PRES   REMARKS
TWIN CITIES    CLOUDY    36  34  92 S8        29.62S FOG
ST PAUL        CLOUDY    36  35  96 S7        29.64S FOG
CRYSTAL        CLOUDY    37  34  89 S10       29.60R FOG
BLAINE         CLOUDY    37  37 100 SE12      29.61S FOG
LAKEVILLE      CLOUDY    36  36 100 SE8       29.61S FOG
EDEN PRAIRIE   CLOUDY    36  35  96 SE10      29.58F FOG
SOUTH ST PAUL  CLOUDY    37  35  94 S5        29.63S FOG
LAKE ELMO      CLOUDY    36  36 100 SE8       29.63F FOG
$$
MNZ001>005-007-008-013>017-022>024-027-028-230200-
   Northwest Minnesota

CITY           SKY/WX    TMP DP  RH WIND       PRES   REMARKS
BEMIDJI        MOCLDY    35  29  79 SE7       29.48R WCI  29
HALLOCK        CLOUDY    37  30  75 SE12      29.41F
ROSEAU         CLOUDY    36  30  80 E9        29.46R
WARROAD        MOCLDY    34  30  86 E8        29.47F WCI  27
THIEF RVR FALL CLOUDY    36  30  80 E10       29.44F
CROOKSTON      CLOUDY    39  30  70 SE9       29.42F
FOSSTON        MOCLDY    37  28  70 E7        29.44F
DETROIT LAKES  PTCLDY    34  32  93 S20       29.46S WCI  22
MOORHEAD       CLOUDY    34  34 100 S20       29.45F WCI  22
PARK RAPIDS    CLEAR     32  28  85 SE14      29.49R WCI  22
MAHNOMEN       FAIR      38  29  72 SE9       29.43S
$$
MNZ006-009>011-018-025>026-230200-
   North Central Minnesota

CITY           SKY/WX    TMP DP  RH WIND       PRES   REMARKS
BAUDETTE       CLOUDY    35  31  85 E10       29.48F WCI  27
FLAG ISLAND    MOCLDY    34  30  86 E8        29.47F WCI  27
INTL FALLS     CLOUDY    34  30  85 E9        29.52F WCI  27
WASKISH        CLOUDY    37  30  75 CALM      29.49S
BIG FORK       MOCLDY    37  28  70 SE3       29.51F
LONGVILLE      MOCLDY    32  28  86 SE12G20   29.51F FOG     WCI  23
GRAND RAPIDS   MOCLDY    34  28  80 SE8       29.53F WCI  27
CRANE LAKE     CLOUDY    30  30 100 CALM      29.57F FOG
ORR            CLOUDY    34  28  80 SE6       29.52S WCI  29
COOK             N/A     32  30  93 SE5       29.56R WCI  27
WALKER         FAIR      34  28  79 SE8       29.49S WCI  27
$$
MNZ012-019>021-037-230200-
   Northeast Minnesota

CITY           SKY/WX    TMP DP  RH WIND       PRES   REMARKS
DULUTH         CLOUDY    34  31  88 SE9       29.59S FOG     WCI  27
ELY            CLOUDY    30  28  93 SE5       29.57F WCI  25
HIBBING        CLOUDY    33  28  81 SE7       29.57R WCI  27
EVELETH        CLOUDY    32  30  93 S6        29.59R FOG     WCI  26
DULUTH HARBOR  CLOUDY    36  32  87 CALM      29.64R
TWO HARBORS    CLOUDY    37  32  81 S3        29.60R HAZE
SILVER BAY     MOCLDY    34  30  86 CALM      29.60F FOG
GRAND MARAIS     N/A     35  31  85 CALM      29.66R
G MARAIS ARPRT CLOUDY    30  28  93 S3        29.61S
$$
MNZ029>031-032-039>041-046>048-054>057-064-230200-
   West Central Minnesota

CITY           SKY/WX    TMP DP  RH WIND       PRES   REMARKS
FERGUS FALLS   CLOUDY    34  32  93 SE16      29.50F FOG     WCI  23
WHEATON        CLOUDY    32  30  93 SE16      29.45F FOG     WCI  21
MORRIS         MOCLDY    34  34 100 SE17      29.45F FOG     WCI  23
ALEXANDRIA     FOG       32  32 100 SE16      29.51R VSB 3/4 WCI  21
ELBOW LAKE     FOG       32  32  99 SE18G26   29.46F VSB 1   WCI  21
WADENA         CLOUDY    30  30 100 SE14G20   29.51R FOG     WCI  20
GLENWOOD       FOG       34  32  93 SE10      29.52R VSB 1/2 WCI  26
APPLETON       MOCLDY    36  34  93 SE10      29.47F FOG
BENSON         CLOUDY    34  34 100 S14       29.49S FOG     WCI  24
ORTONVILLE     MOCLDY    34  30  86 SE13      29.43F FOG     WCI  25
MADISON        MOCLDY    37  36  93 SE13      29.44F FOG
WILLMAR        FOG       36  34  93 SE15      29.52F VSB 1
$$
MNZ033>034-036-042>043-049>051-058-059-230200-
   Central Minnesota

CITY           SKY/WX    TMP DP  RH WIND       PRES   REMARKS
ST CLOUD       FOG       34  33  96 SE16      29.56S VSB 1   WCI  24
SAUK CENTRE    FOG       32  32 100 SE12      29.53S VSB 1/2 WCI  23
PAYNESVILLE    FOG       31  31 100 E9        29.53F VSB 1   WCI  23
AITKIN         CLOUDY    36  30  80 SE9       29.54S HAZE
PINE RIVER     CLOUDY    32  30  93 SE9       29.56F FOG     WCI  24
BRAINERD       CLOUDY    31  31 100 SE12G21   29.54S FOG     WCI  22
STAPLES        CLOUDY    30  30 100 SE8       29.51S FOG     WCI  23
LONG PRAIRIE   FOG       32  32 100 SE15G23   29.53S VSB 1/2 WCI  22
LITTLE FALLS   FOG       32  32 100 SE12G17   29.55F VSB 1/2 WCI  23
LITCHFIELD     FOG       36  36 100 SE8       29.54F VSB 3/4
BUFFALO        CLOUDY    34  33  94 SE8       29.59S FOG     WCI  28
MAPLE LAKE     CLOUDY    35  35  99 SE10      29.57F FOG     WCI  27
$$
MNZ037-044-045-052-053-230200-
   East Central Minnesota

CITY           SKY/WX    TMP DP  RH WIND       PRES   REMARKS
PRINCETON      CLOUDY    36  34  93 SE9       29.58F FOG
MORA           CLOUDY    32  32 100 SE7       29.60F FOG     WCI  26
CAMBRIDGE      CLOUDY    36  30  80 SE10      29.58F HAZE
RUSH CITY      CLOUDY    34  33  95 SE8       29.61F WCI  27
MOOSE LAKE     CLOUDY    32  32 100 CALM      29.58S FOG
HINCKLEY       CLOUDY    34  34 100 SE9       29.61S FOG     WCI  26
CLOQUET        CLOUDY    34  30  86 SE7       29.59S FOG     WCI  28
MCGREGOR       CLOUDY    32  32 100 SE9       29.57S WCI  24
$$
MNZ071>073-080-081-089-090-097-098-230200-
   Southwest Minnesota

CITY           SKY/WX    TMP DP  RH WIND       PRES   REMARKS
MONTEVIDEO     MOCLDY    34  34 100 S9        29.48F FOG     WCI  26
GRANITE FALLS  MOCLDY    35  33  94 SE9       29.50F FOG     WCI  27
CANBY          MOCLDY    40  35  80 S13G20    29.43F
MARSHALL       MOCLDY    39  34  81 S24G31    29.45F
REDWOOD FALLS  PTCLDY    36  34  92 SE16      29.52F FOG
OLIVIA         CLOUDY    36  34  93 SE13      29.50F FOG
PIPESTONE      PTCLDY    37  36  93 S18       29.47S
WINDOM         PTCLDY    37  36  93 S9        29.52F FOG
WORTHINGTON    CLEAR     37  34  87 S14G21    29.52F
JACKSON        PTCLDY    37  36  93 S13       29.54F
TRACY          MOCLDY    38  35  89 S14       29.49S
SLAYTON        PTCLDY    38  36  92 S16G23    29.50F
$$
MNZ065>067-074>077-082>085-091>093-230200-
   South Central Minnesota

CITY           SKY/WX    TMP DP  RH WIND       PRES   REMARKS
MANKATO        CLOUDY    37  36  93 S14       29.57F
NEW ULM          N/A     37  37 100 SE9       29.55F FOG
ST JAMES       MOCLDY    37  36  93 S12       29.56F FOG
FAIRMONT       MOCLDY    37  34  87 S15       29.56F
GLENCOE        CLOUDY    37  37  99 SE8       29.56F FOG
FARIBAULT      CLOUDY    37  37 100 S8        29.61S FOG
OWATONNA       CLOUDY    39  37  93 S10G17    29.60F FOG
WASECA         CLOUDY    36  32  87 SE7       29.61F FOG
ALBERT LEA     MOCLDY    39  39 100 S10       29.60F FOG
$$
MNZ078>079-086>088-094>096-230200-
   Southeast Minnesota

CITY           SKY/WX    TMP DP  RH WIND       PRES   REMARKS
ROCHESTER      FOG       38  38 100 S12       29.64F VSB 1/4
RED WING         N/A     37  36  93 SE8       29.64F FOG
STANTON        CLOUDY    39  37  92 S8        29.61S FOG
DODGE CENTER   MIX PCPN  39  37  93 S13       29.61F VSB<1/4
WINONA         FOG       37  36  93 SE5       29.69F VSB 1
AUSTIN         DRZL/FOG  37  37 100 SE6       29.62F VSB 3/4
PRESTON        FOG       38  37  98 S9        29.66F VSB 1/4
$$
ABBREVIATIONS USED IN REMARKS
   TC - TEMPERATURES IN CELSIUS
  WCI - WIND CHILL INDEX
   HX - HEAT INDEX
  VSB - VISIBILITY
$$



USA.gov is the U.S. government's official web portal to all federal, state and local government web resources and services.